TimePDT,TemperatureF,Dew PointF,Humidity,Sea Level PressureIn,VisibilityMPH,Wind Direction,Wind SpeedMPH,Gust SpeedMPH,PrecipitationIn,Events,Conditions,WindDirDegrees,DateUTC
12:53 AM,53.1,39.9,61,30.15,10.0,SW,3.5,-,N/A,,Clear,220,2013-07-18 07:53:00
1:53 AM,51.1,39.9,66,30.14,10.0,Calm,Calm,-,N/A,,Clear,0,2013-07-18 08:53:00
2:53 AM,48.9,39.9,71,30.14,10.0,Calm,Calm,-,N/A,,Clear,0,2013-07-18 09:53:00
3:53 AM,46.9,39.0,74,30.14,10.0,Calm,Calm,-,N/A,,Clear,0,2013-07-18 10:53:00
4:53 AM,45.0,37.9,76,30.15,10.0,Calm,Calm,-,N/A,,Clear,0,2013-07-18 11:53:00
5:53 AM,43.0,37.0,80,30.16,10.0,Calm,Calm,-,N/A,,Clear,0,2013-07-18 12:53:00
6:53 AM,45.0,37.9,76,30.17,10.0,South,3.5,-,N/A,,Clear,190,2013-07-18 13:53:00
7:53 AM,55.0,39.9,57,30.16,10.0,South,3.5,-,N/A,,Clear,170,2013-07-18 14:53:00
8:53 AM,66.9,37.9,34,30.14,10.0,Calm,Calm,-,N/A,,Clear,0,2013-07-18 15:53:00
9:53 AM,73.0,41.0,31,30.11,10.0,NE,5.8,-,N/A,,Clear,40,2013-07-18 16:53:00
10:53 AM,75.9,43.0,31,30.11,10.0,Variable,3.5,-,N/A,,Clear,0,2013-07-18 17:53:00
11:53 AM,80.1,41.0,25,30.10,10.0,Variable,5.8,-,N/A,,Clear,0,2013-07-18 18:53:00
12:53 PM,82.0,39.0,22,30.08,10.0,NE,8.1,-,N/A,,Clear,40,2013-07-18 19:53:00
1:53 PM,84.0,36.0,18,30.07,10.0,NNE,6.9,-,N/A,,Clear,30,2013-07-18 20:53:00
2:53 PM,86.0,28.0,12,30.06,10.0,NNE,10.4,-,N/A,,Clear,30,2013-07-18 21:53:00
3:53 PM,88.0,32.0,14,30.05,10.0,NNE,8.1,-,N/A,,Clear,20,2013-07-18 22:53:00
4:53 PM,86.0,43.0,22,30.05,10.0,NNE,6.9,-,N/A,,Clear,30,2013-07-18 23:53:00
5:53 PM,84.9,39.9,20,30.05,10.0,SSW,9.2,16.1,N/A,,Clear,210,2013-07-19 00:53:00
6:53 PM,82.0,41.0,23,30.05,10.0,South,9.2,-,N/A,,Clear,190,2013-07-19 01:53:00
7:53 PM,75.9,43.0,31,30.06,10.0,SSW,4.6,-,N/A,,Clear,200,2013-07-19 02:53:00
8:53 PM,68.0,44.1,42,30.06,10.0,Calm,Calm,-,N/A,,Clear,0,2013-07-19 03:53:00
9:53 PM,63.0,45.0,52,30.08,10.0,Calm,Calm,-,N/A,,Clear,0,2013-07-19 04:53:00
10:53 PM,60.1,45.0,57,30.08,10.0,Calm,Calm,-,N/A,,Clear,0,2013-07-19 05:53:00
11:53 PM,57.9,43.0,58,30.07,10.0,Calm,Calm,-,N/A,,Clear,0,2013-07-19 06:53:00